EHI
20 18 14 13 13 12 11 10 9 10 10 8 7 6 5 4 2 1 1 0 0 1 2 1 1 2 2 2 1 0 0 0 0 0 0 0 0 0 1 1 1 0 0
17 16 14 13 12 11 11 11 11 11 9 7 6 5 4 2 1 1 0 0 0 1 2 2 1 1 1 2 2 1 0 0 0 0 0 0 0 0 0 0 0 0 0
12 12 13 13 13 11 12 13 13 10 8 7 5 4 3 1 0 0 1 1 0 1 2 2 1 1 1 2 2 1 0 0 0 0 0 0 0 0 0 0 0 0 0
8 10 12 15 14 12 11 12 11 9 7 5 4 4 2 1 0 0 1 1 1 0 1 1 1 1 2 2 1 0 0 0 0 0 0 0 0 0 0 0 0 0 0
7 8 11 14 15 13 11 9 7 6 5 4 3 3 2 1 0 0 1 1 1 0 0 0 0 0 1 1 1 0 0 0 0 0 0 0 0 0 0 0 0 0 0
6 7 9 13 14 12 10 7 5 4 3 2 2 1 1 0 0 0 0 0 0 0 0 0 0 0 0 0 0 0 0 0 0 0 0 0 0 0 0 0 0 0 0
7 7 9 11 12 12 9 7 5 4 3 2 1 0 0 0 0 0 0 0 0 0 0 0 0 0 0 0 0 0 0 0 0 0 0 0 0 0 0 0 0 0 0
8 8 9 10 12 13 12 8 6 6 5 3 2 2 2 1 0 0 0 0 0 0 0 0 0 0 0 0 0 0 0 0 0 0 0 0 0 0 0 0 0 0 0
9 8 9 11 12 14 16 13 9 8 8 6 5 4 3 1 0 0 0 0 0 0 0 0 0 0 0 0 0 0 0 0 0 0 0 0 0 0 0 0 0 0 0
9 9 10 13 13 15 18 17 12 9 8 7 6 5 3 1 0 0 0 0 0 0 0 0 0 0 0 0 0 0 0 0 0 0 0 0 0 0 0 0 0 0 0
8 9 11 13 12 13 17 17 13 8 6 6 6 5 4 2 0 0 0 0 0 0 0 0 0 0 0 0 0 0 0 0 0 0 0 0 0 0 0 0 0 0 0
6 7 8 9 8 9 12 12 9 6 4 5 5 5 3 2 1 0 0 0 0 0 0 0 1 0 0 0 0 0 0 0 0 0 0 0 0 0 0 0 0 0 0
4 4 4 5 5 6 7 7 5 3 2 2 4 3 2 2 1 0 0 0 0 0 0 0 0 0 0 0 0 0 0 0 0 0 0 0 0 0 0 0 0 0 0
2 3 4 4 4 5 6 4 3 2 1 2 3 2 1 1 2 1 0 0 0 0 0 0 0 0 0 0 0 0 0 0 0 0 0 0 0 0 0 0 0 0 0
3 3 4 3 3 4 4 3 2 1 1 1 2 1 0 0 1 0 0 0 0 0 0 0 0 0 0 0 0 0 0 0 0 0 0 0 0 0 0 0 0 0 0
3 3 3 2 2 3 3 2 1 1 0 0 0 0 0 0 0 0 0 0 0 0 0 0 0 0 0 1 1 1 0 0 0 0 0 0 0 0 0 0 0 0 0
3 3 2 1 1 2 2 1 0 0 0 0 0 0 0 0 0 0 0 0 0 0 0 0 0 0 1 2 2 2 1 0 0 0 0 0 0 0 0 0 0 0 0
2 2 1 1 0 1 1 0 0 0 0 0 0 0 0 0 0 0 0 0 0 0 0 0 1 1 2 3 3 2 1 1 1 1 0 0 0 0 0 0 0 0 0
1 1 0 0 0 0 1 0 0 0 0 0 0 0 0 0 0 0 0 0 0 0 0 0 1 2 2 2 2 2 1 1 2 1 0 0 0 0 0 0 0 0 0
1 0 0 0 0 0 0 0 1 1 1 0 0 0 0 0 0 0 0 0 0 0 0 0 1 1 1 1 1 1 0 1 1 1 0 0 0 0 0 0 0 0 0
1 0 0 0 0 0 0 0 1 1 1 0 0 0 0 0 0 0 0 0 0 0 0 0 0 0 0 0 0 0 0 0 0 0 0 0 0 0 0 0 0 0 0
0 0 0 0 0 0 0 0 0 0 0 0 0 0 0 0 0 0 0 0 0 0 0 0 0 0 0 0 0 0 0 0 0 0 0 0 0 0 0 0 0 0 0
0 0 0 0 0 0 0 0 0 0 0 0 0 0 0 0 0 0 0 0 0 0 0 0 0 0 0 0 0 0 0 0 0 0 0 0 0 0 0 0 0 0 0
0 0 0 0 0 0 0 0 0 0 1 1 0 0 0 0 0 0 0 0 0 0 0 0 0 0 0 0 0 0 0 0 0 0 0 0 0 0 0 0 0 0 0
0 0 0 0 0 0 0 0 0 0 1 1 1 0 0 0 0 0 0 0 0 0 0 0 0 0 0 0 0 0 0 0 0 0 0 0 0 0 0 0 0 0 0
0 0 0 0 0 0 0 0 0 0 1 2 1 0 0 0 0 0 0 0 0 0 0 0 0 0 0 0 0 0 0 0 0 0 0 0 0 0 0 0 0 0 0
Wind_Speed
5 4 3 3 3 2 2 2 2 2 2 2 3 2 2 2 2 2 2 3 3 2 2 2 2 2 1 1 1 1 1 1 2 3 2 2 2 3 2 3 3 4 4
3 3 3 3 2 2 2 2 2 2 3 3 3 3 3 3 3 3 3 3 3 2 2 1 1 1 1 2 1 2 2 2 2 3 2 2 3 3 3 4 4 4 3
3 3 3 3 2 2 2 2 2 2 2 2 2 3 3 3 3 2 3 2 2 2 2 2 1 1 2 1 2 2 2 2 1 2 3 2 2 2 2 2 3 2 3
2 3 3 3 2 2 2 2 2 2 2 2 2 2 2 2 2 2 3 3 3 2 2 2 2 2 2 2 3 2 2 2 2 2 2 2 2 2 1 2 2 2 3
2 2 2 2 2 2 2 1 1 1 1 2 2 2 2 2 2 2 2 3 2 2 2 2 2 2 2 2 2 2 2 2 2 2 2 2 2 1 1 1 2 2 3
1 2 2 2 2 2 2 2 1 1 1 1 1 1 1 1 1 1 0 1 2 2 2 2 2 3 3 4 3 3 3 3 3 3 3 3 3 2 1 2 2 2 2
2 1 1 2 2 2 2 1 2 1 1 1 1 1 1 1 1 1 1 1 2 2 2 2 4 3 3 2 3 4 4 6 6 4 4 4 3 2 2 3 2 2 3
1 2 1 1 1 2 2 2 1 1 1 1 1 1 1 1 2 2 2 1 1 2 2 3 3 2 2 2 2 2 2 3 4 3 3 4 3 1 2 3 3 3 3
1 1 1 1 1 1 1 2 2 2 2 2 2 2 2 2 3 3 3 2 2 2 3 2 2 1 1 1 1 2 3 3 3 3 4 5 5 5 4 2 3 2 3
1 1 0 0 1 1 2 2 2 2 2 2 2 2 2 2 3 4 4 2 2 2 2 2 2 1 1 1 2 2 3 3 3 3 4 5 6 7 8 6 4 3 2
1 1 0 0 1 2 2 2 2 2 3 3 3 2 2 3 4 5 4 3 2 2 2 2 1 2 1 3 3 3 4 4 4 4 4 3 4 4 5 5 5 3 3
1 1 1 1 1 1 1 1 2 2 3 3 3 3 2 2 3 5 6 5 4 2 2 1 1 3 5 5 4 5 6 5 4 4 3 3 3 3 3 3 4 4 3
2 2 1 1 1 1 1 2 2 2 3 3 3 3 3 2 3 4 5 5 5 3 2 2 3 5 5 5 6 6 5 4 3 3 3 3 2 2 2 2 3 3 3
1 2 1 1 1 1 1 1 1 1 2 2 2 2 2 2 2 2 3 3 4 4 4 4 5 6 6 5 4 5 4 4 3 3 2 2 2 2 2 2 2 2 2
1 2 2 2 1 1 1 1 1 1 1 2 2 2 2 2 2 3 3 3 3 3 3 3 4 3 3 4 4 4 4 4 3 3 2 2 2 2 2 2 2 2 2
2 3 3 2 2 2 2 1 1 1 2 3 3 3 2 2 3 3 3 3 4 4 3 4 4 5 4 4 4 3 3 3 3 2 2 2 2 2 1 1 2 2 2
2 3 3 3 3 2 2 3 2 2 2 3 4 5 5 4 4 3 3 3 3 2 3 5 4 4 4 3 3 2 2 2 2 2 2 2 2 2 2 1 2 2 2
4 4 4 3 3 3 3 3 3 4 3 2 3 6 6 6 6 6 4 2 3 4 5 5 5 4 4 3 2 2 2 2 3 3 2 2 2 2 2 2 1 2 2
4 3 3 4 4 4 4 4 4 4 4 3 2 3 5 6 6 6 4 4 5 5 5 5 5 4 3 3 2 2 2 2 2 2 2 2 2 2 2 1 1 1 2
3 5 5 5 5 4 4 5 4 4 3 3 3 2 3 3 3 3 4 5 6 5 4 4 3 3 2 2 2 2 2 2 2 2 2 2 2 2 2 2 1 1 1
3 4 5 5 5 4 4 4 3 3 4 3 3 3 4 4 5 4 5 5 5 4 3 3 3 2 2 2 2 2 2 2 2 2 2 2 1 1 1 1 1 1 1
4 3 4 5 4 4 5 5 4 4 4 4 3 3 5 4 5 4 4 3 3 3 2 2 2 2 1 1 1 1 2 1 1 1 1 1 2 2 2 2 1 1 1
5 5 4 4 4 5 5 5 4 4 4 3 2 1 2 3 4 3 2 1 1 1 1 1 2 2 1 0 0 1 1 1 0 0 1 1 1 1 1 2 2 1 1
5 5 4 4 5 5 5 4 4 4 3 2 2 2 2 3 3 3 2 1 1 1 1 1 1 1 1 1 1 0 1 1 1 0 1 1 2 2 1 1 1 1 1
5 5 4 4 5 5 5 4 4 4 3 2 2 2 2 2 2 3 2 1 1 1 2 2 1 1 1 0 1 1 1 2 1 1 1 2 2 2 2 2 2 1 1
5 5 4 4 4 4 4 4 3 4 3 3 2 2 1 2 2 2 2 1 1 2 2 2 2 2 2 1 2 2 2 2 1 1 2 2 2 2 1 2 2 1 1
Wind_Direction
179 174 171 174 184 190 205 215 216 203 197 205 200 202 209 204 205 204 209 207 202 194 207 194 225 240 255 270 272 269 268 255 260 275 274 265 253 251 241 232 218 201 204
165 162 161 163 173 194 202 215 224 210 211 211 198 196 214 208 198 206 218 205 196 192 198 196 244 265 260 268 278 276 268 247 240 268 277 271 261 249 236 241 239 215 206
154 159 150 158 176 202 214 219 224 224 226 206 192 201 214 212 202 203 210 214 212 205 204 203 228 264 282 281 276 276 278 275 252 256 270 268 258 254 242 260 262 252 235
147 152 154 170 186 200 212 226 221 219 207 196 200 215 217 216 205 212 214 219 220 216 215 212 219 229 251 262 268 275 278 279 266 266 271 267 256 255 239 236 267 260 247
152 161 164 171 187 195 206 210 215 211 204 192 200 217 216 209 207 210 212 208 206 214 219 215 220 226 223 246 269 278 277 272 272 270 271 275 273 276 267 249 249 248 247
169 168 167 175 180 195 197 185 191 198 187 175 199 222 216 239 136 144 178 177 188 213 221 215 215 222 216 231 249 263 258 256 264 261 264 266 273 280 267 267 264 253 254
160 146 172 179 178 194 190 173 193 195 183 210 215 199 167 81 134 173 188 186 204 223 233 237 250 233 215 223 234 246 255 260 250 250 257 257 255 268 274 266 264 263 260
164 163 182 190 195 186 172 185 194 186 184 211 227 227 189 183 172 185 207 206 231 243 244 242 243 251 250 249 262 280 275 278 266 247 252 259 256 263 268 264 256 253 255
200 207 199 195 185 179 186 203 202 195 201 209 217 220 210 193 192 193 187 222 234 253 256 256 242 235 255 251 244 269 285 284 286 264 250 249 250 249 246 256 256 255 263
285 285 243 214 199 194 206 217 214 206 204 215 223 217 209 198 197 199 196 224 237 247 257 251 225 205 116 212 244 264 273 278 283 280 262 255 246 237 230 226 232 242 253
318 311 297 221 203 190 197 202 206 214 207 214 220 218 211 207 193 200 201 224 249 256 261 258 209 177 211 250 260 261 265 278 277 263 258 255 247 232 213 211 212 217 229
319 312 318 311 279 211 171 193 214 226 214 210 215 217 218 207 186 198 205 222 253 277 278 279 218 215 234 246 249 258 269 280 267 261 254 253 246 232 203 193 194 203 207
325 320 309 313 301 253 221 205 217 228 231 225 223 221 216 205 195 196 201 226 244 255 281 293 266 249 253 246 241 250 259 256 253 255 255 250 242 232 198 180 185 191 202
312 307 291 276 256 241 262 239 221 254 259 245 239 231 226 203 188 189 201 223 232 241 257 263 257 253 254 257 248 238 234 243 247 254 263 258 257 236 214 195 192 186 182
298 290 284 266 258 219 228 272 267 240 250 256 266 262 250 234 225 205 210 223 232 240 244 244 247 244 238 241 236 227 226 231 233 238 246 251 260 249 230 208 186 172 182
278 283 284 273 246 233 219 230 328 250 253 252 249 249 271 232 210 197 213 224 229 229 230 245 247 248 243 233 229 227 218 220 220 220 231 235 245 255 249 216 189 180 186
302 295 292 290 272 252 240 236 236 241 254 266 249 237 237 238 224 219 241 259 244 207 234 252 253 255 257 250 236 233 225 207 206 207 227 239 248 250 251 235 202 187 186
302 289 289 286 281 273 263 251 245 240 233 239 239 223 220 225 225 224 226 232 248 225 235 246 252 249 250 252 245 236 226 200 198 203 214 234 250 252 247 233 216 198 191
294 295 296 288 282 274 271 264 255 254 241 228 217 223 222 222 230 233 211 231 248 240 231 236 243 246 246 243 237 227 218 212 193 193 201 218 238 251 248 232 219 177 189
292 295 294 283 277 275 271 267 258 254 253 238 223 223 198 208 220 215 219 233 247 251 245 247 249 250 244 249 241 225 210 199 190 198 204 215 218 235 248 235 225 212 182
280 285 287 282 277 272 271 270 270 262 258 249 238 223 205 231 235 230 228 233 242 244 245 253 259 249 244 252 255 243 224 211 197 191 194 207 209 220 247 243 229 226 174
286 277 272 278 284 283 280 274 268 267 266 260 250 219 200 229 240 238 237 234 244 247 241 255 270 268 270 285 289 274 266 248 222 180 184 209 206 205 222 230 230 213 185
284 281 281 285 286 281 272 271 275 275 272 264 262 251 220 251 267 257 251 242 251 248 258 255 254 263 290 1 6 333 309 298 245 167 189 209 228 214 210 223 225 214 182
295 294 297 296 292 287 284 281 274 275 277 272 256 250 244 253 275 287 287 269 256 259 256 256 238 266 354 35 77 28 3 355 330 246 196 227 242 238 237 237 228 208 172
292 293 297 300 295 291 290 292 292 288 284 280 267 259 265 270 276 286 295 300 271 258 258 262 229 208 232 147 65 57 65 60 36 322 253 238 242 239 232 242 237 223 215
287 292 293 289 289 293 295 293 293 294 293 293 290 283 275 280 275 280 291 304 301 283 266 261 241 208 196 144 111 109 114 98 64 331 279 257 244 237 230 230 231 241 238